Find Local Weather

World > North America > United States > Texas

Jefferson, Texas Regional Weather

Lat: 32.76N, Lon: 94.35W
Wx Zone: TXZ126
Feedback
Expires:201807231600;;931581
ASUS44 KFWD 231515
RWRTX 
NORTH TEXAS HOURLY WEATHER ROUNDUP
NATIONAL WEATHER SERVICE FORT WORTH TX
1000 AM CDT MON JUL 23 2018

NOTE: "FAIR" INDICATES FEW OR NO CLOUDS BELOW 12,000 FEET WITH NO
SIGNIFICANT WEATHER AND/OR OBSTRUCTIONS TO VISIBILITY.


TXZ095>097-106>112-122>126-135>138-148>153-164>167-231600-
EAST TEXAS
  
CITY           SKY/WX    TMP DP  RH WIND       PRES   REMARKS
PARIS          FAIR      84  68  58 E10       29.93F                  
SULPHUR SPRNGS FAIR      87  65  47 E13       29.94S                  
MOUNT PLEASANT FAIR      86  67  52 E8        29.92S                  
GILMER         FAIR     N/A N/A N/A NE6       29.91F                  
MINEOLA        FAIR      86  68  54 E9        29.90S                  
TYLER            N/A    N/A N/A N/A MISG      29.90S                  
LONGVIEW       FAIR      89  69  51 E9        29.89F HX  93           
MARSHALL       FAIR      86  66  51 MISG      29.92F                  
ATHENS         FAIR      86  72  62 CALM      29.89S HX  92           
PALESTINE      FAIR      86  73  65 S5        29.92F HX  93           
JACKSONVILLE   FAIR      85  74  69 SW3       29.93F HX  92           
HENDERSON      FAIR      90  71  54 S6        29.90F HX  96           
CENTER         FAIR      86  65  50 CALM      29.91F HAZE             
NACOGDOCHES      N/A     88  74  63 W8        29.91F HX  96           
LUFKIN         FAIR      85  72  65 W8        29.92S HX  91           
$$

SUPPLEMENTAL OBSERVATIONS (NWS FORT WORTH AREA)
  
CITY           SKY/WX    TMP DP  RH WIND       PRES   REMARKS
DENISON DAM      N/A     84  64  51 E8          N/A                   
CADDO GRASSLND   N/A     86  66  51 SE6         N/A                   
LBJ GRASSLAND    N/A     91  66  43 NE6         N/A  HX  94           
POSSUM KINGDOM   N/A     95  57  28 NW6         N/A  HX  94           
GRANBURY         N/A     95  59  30 NW3         N/A  HX  94           
COMANCHE         N/A     95  55  26 W15         N/A  HX  93           
MCGREGOR         N/A     95  64  36 W9          N/A  HX  97           
TEMPLE           N/A     91  68  46 SW8         N/A  HX  95           
LAKE LIMESTONE   N/A     88  75  66 SW7         N/A  HX  97           
ATHENS           N/A     90  72  55 S3          N/A  HX  96           
PALESTINE        N/A     88  73  62 S3          N/A  HX  96           
$$

SUPPLEMENTAL OBSERVATIONS (NWS NORMAN AREA)
  
CITY           SKY/WX    TMP DP  RH WIND       PRES   REMARKS
GOODLETT         N/A     82  58  43 NE13      30.05R                  
ODELL            N/A     83  62  49 NE14      30.04R                  
CROWELL          N/A     86  62  45 N13       30.03R                  
KNOX CITY        N/A     85  65  50 N10       30.00R                  
SEYMOUR          N/A     83  65  54 N10       29.98R                  
MILLERS CREEK    N/A     84  66  54 N8G16       N/A                   
$$

SUPPLEMENTAL OBSERVATIONS (NWS SAN ANGELO AREA)
  
CITY           SKY/WX    TMP DP  RH WIND       PRES   REMARKS
WEINERT          N/A     83  66  57 N10       29.99S                  
HASKELL          N/A     83  63  49 N13       29.99S                  
THROCKMORTON     N/A     84  66  54 N8        29.97R                  
STAMFORD         N/A     83  65  53 N10       30.00R                  
CLYDE            N/A     92  56  30 W13       30.02S HX  90           
HAMBY            N/A     90  54  29 W7          N/A                   
IVIE RESERVOIR   N/A     91  63  38 W9          N/A  HX  92           
COLORADO BEND    N/A     93  63  36 SW7         N/A  HX  94           
$$

SUPPLEMENTAL OBSERVATIONS (NWS SHREVEPORT AREA)
  
CITY           SKY/WX    TMP DP  RH WIND       PRES   REMARKS
TEXARKANA        N/A     84  68  58 NE3         N/A                   
LINDEN           N/A     86  68  54 E5          N/A                   
CADDO LAKE       N/A     90  70  51 NE1         N/A  HX  95           
LUFKIN           N/A     88  73  62 MISG        N/A  HX  96           
N SABINE NF      N/A     90  68  48 MISG        N/A  HX  93           
$$

SUPPLEMENTAL OBSERVATIONS ARE A COLLECTION OF AUTOMATED INSTRUMENTS
THAT ARE MAINTAINED BY A VARIETY OF FEDERAL AND STATE AGENCIES. 
CERTAIN ELEMENTS...SUCH AS HUMIDITY VALUES AND SUSTAINED WIND 
SPEEDS...MAY BE APPROXIMATED.

  

SKY/WX - Weather  TMP - Temperature  DP - Dewpoint  RH - Relative Humidity
WIND - Wind Direction/Speed PRES - Barometric Pressure